User: anonymous   Login
Location: Unspecified
(0.0000°N, 0.0000°E)
Time: 14:24:06
(UTC+00:00)
Language:

Altair - Orbit

View from above orbital plane
View from above orbital plane
View from above satellite
View from above satellite

Ground track
Ground track

The orbit data is extracted from the following two-line orbital elements,

1 00050U 60009B   21101.84724659 -.00000071  00000-0  13992-3 0  9996
2 00050  47.2302 275.1563 0113947 134.9461 226.0637 12.20116862706656
Epoch (UTC): 11 April 2021 20:20:02
Eccentricity: 0.0113947
inclination: 47.2302°
perigee height: 1501 km
apogee height: 1683 km
right ascension of ascending node: 275.1563°
argument of perigee: 134.9461°
revolutions per day: 12.20116862
mean anomaly at epoch: 226.0637°
orbit number at epoch: 70665

The dashed part of the orbit path shows where the satellite is in the earth's shadow,  

DLR